GW4019 Weather Reports


time (UTC)temp
C
wind
direction
speed
KPH
gust
KPH
rain 1hr
cm
rain 24hr
cm
rain mn
cm
humidity
%
barometer
mb
20260507083055 12 344 1.6 6.4 0.00 0.00 0.00 91 1020.3
20260507081557 12 333 0.0 6.4 0.00 0.00 0.00 91 1020.4
20260507080107 12 331 0.0 9.7 0.00 0.00 0.00 91 1020.5
20260507074559 12 336 1.6 6.4 0.00 0.00 0.00 90 1020.5
20260507073101 12 316 3.2 8.0 0.00 0.00 0.00 90 1020.4
20260507071553 12 350 0.0 8.0 0.00 0.00 0.00 90 1020.5
20260507070105 12 323 3.2 8.0 0.00 0.00 0.00 90 1020.5
20260507064634 12 336 3.2 8.0 0.00 0.00 0.00 90 1020.6
20260507063109 12 333 1.6 8.0 0.00 0.00 0.00 90 1020.4
20260507061554 12 0 0.0 9.7 0.00 0.00 0.00 90 1020.6
20260507060112 12 340 3.2 14.5 0.00 0.00 0.00 90 1020.5
20260507054605 12 328 3.2 6.4 0.00 0.00 0.00 90 1020.3
20260507053107 12 329 3.2 12.9 0.00 0.00 0.00 90 1020.4
20260507051606 12 302 3.2 12.9 0.00 0.00 0.00 90 1020.5
20260507050056 12 0 1.6 8.0 0.00 0.00 0.00 89 1020.7
20260507044600 12 300 1.6 12.9 0.00 0.00 0.00 89 1020.7
20260507043057 12 281 4.8 12.9 0.00 0.00 0.00 89 1020.6
20260507041555 12 297 4.8 11.3 0.00 0.00 0.00 89 1020.4
20260507040052 12 331 3.2 8.0 0.00 0.00 0.00 89 1020.4
20260507034555 12 331 3.2 8.0 0.00 0.00 0.00 88 1020.3
20260507033054 12 296 3.2 12.9 0.00 0.00 0.00 88 1020.2
20260507031553 13 287 6.4 16.1 0.00 0.00 0.00 88 1020.1
20260507030054 13 311 4.8 14.5 0.00 0.00 0.00 87 1019.9
20260507024554 13 326 3.2 16.1 0.00 0.00 0.00 87 1019.8
20260507023053 13 324 4.8 16.1 0.00 0.00 0.00 87 1019.7
20260507021555 13 301 4.8 16.1 0.00 0.00 0.00 86 1019.8
20260507020103 13 340 6.4 14.5 0.00 0.00 0.00 86 1019.8
20260507014558 13 324 8.0 20.9 0.00 0.00 0.00 86 1019.9
20260507013053 13 321 11.3 17.7 0.00 0.00 0.00 85 1020.0
20260507011553 14 305 6.4 20.9 0.00 0.00 0.00 85 1019.9
20260507010109 14 292 11.3 22.5 0.00 0.00 0.00 84 1019.9
20260507004556 15 282 11.3 20.9 0.00 0.00 0.00 84 1019.8
20260507003055 15 282 8.0 22.5 0.00 0.00 0.00 84 1019.6
20260507001608 15 307 9.7 24.1 0.00 0.00 0.00 83 1019.6
20260507000052 15 302 4.8 17.7 0.00 0.00 0.00 83 1019.6
20260506234603 15 300 6.4 19.3 0.00 0.00 0.00 83 1019.6
20260506233059 15 303 8.0 24.1 0.00 0.00 0.00 83 1019.6
20260506231609 15 308 8.0 22.5 0.00 0.00 0.00 82 1019.6
20260506230111 15 293 11.3 20.9 0.00 0.00 0.00 82 1019.8
20260506224603 15 319 9.7 22.5 0.00 0.00 0.00 82 1019.8
20260506223100 16 299 8.0 20.9 0.00 0.00 0.00 82 1019.8
20260506221613 16 320 8.0 20.9 0.00 0.00 0.00 81 1020.1
20260506220115 16 295 9.7 22.5 0.00 0.00 0.00 81 1020.2
20260506214558 16 306 4.8 19.3 0.00 0.00 0.00 81 1020.2
20260506213109 16 293 6.4 22.5 0.00 0.00 0.00 81 1020.2
20260506211558 16 288 9.7 24.1 0.00 0.00 0.00 80 1020.3
20260506210105 16 297 8.0 19.3 0.00 0.00 0.00 80 1020.3
20260506204606 16 287 6.4 19.3 0.00 0.00 0.00 81 1020.4
20260506203056 16 287 8.0 20.9 0.00 0.00 0.00 80 1020.5
20260506201558 16 288 8.0 20.9 0.00 0.00 0.00 79 1020.6
20260506200055 16 296 6.4 22.5 0.00 0.00 0.00 79 1020.7
20260506194553 17 284 9.7 19.3 0.00 0.00 0.00 78 1020.7
20260506193055 17 309 8.0 20.9 0.00 0.00 0.00 77 1020.7
20260506191556 17 288 9.7 22.5 0.00 0.00 0.00 78 1020.7
20260506190052 16 302 11.3 24.1 0.00 0.00 0.00 77 1020.8
20260506184620 17 309 4.8 19.3 0.00 0.00 0.00 77 1020.8
20260506183057 17 282 8.0 19.3 0.00 0.00 0.00 76 1020.8
20260506181559 17 306 4.8 17.7 0.00 0.00 0.00 76 1021.0
20260506174554 17 292 6.4 17.7 0.00 0.00 0.00 80 1021.1
20260506173053 16 315 9.7 16.1 0.00 0.00 0.00 79 1021.1
20260506171601 16 281 3.2 16.1 0.00 0.00 0.00 79 1021.1
20260506170057 16 309 8.0 14.5 0.00 0.00 0.00 81 1021.3
20260506164553 16 313 1.6 8.0 0.00 0.00 0.00 80 1021.2
20260506163101 15 350 1.6 8.0 0.00 0.00 0.00 84 1021.2
20260506161553 14 322 1.6 4.8 0.00 0.00 0.00 86 1021.3
20260506160108 13 0 1.6 6.4 0.00 0.00 0.00 88 1021.2
20260506154553 13 0 0.0 4.8 0.00 0.03 0.00 89 1021.2
20260506153053 12 0 0.0 3.2 0.00 0.03 0.00 90 1021.2
20260506151557 12 0 0.0 0.0 0.00 0.03 0.00 91 1021.1
20260506150055 12 0 0.0 0.0 0.00 0.03 0.00 91 1021.2
20260506144603 12 0 0.0 0.0 0.00 0.03 0.00 90 1021.1
20260506143054 11 0 0.0 0.0 0.00 0.03 0.00 90 1021.1
20260506141557 11 0 0.0 0.0 0.00 0.03 0.00 90 1020.9
20260506140056 11 0 0.0 0.0 0.00 0.03 0.00 90 1020.8
20260506134553 11 0 0.0 0.0 0.00 0.03 0.00 90 1020.6
20260506133057 11 0 0.0 0.0 0.00 0.03 0.00 90 1020.6
20260506131612 11 0 0.0 0.0 0.00 0.03 0.00 90 1020.4
20260506130056 11 0 0.0 0.0 0.00 0.03 0.00 89 1020.2
20260506124553 11 0 0.0 0.0 0.00 0.03 0.00 89 1020.2
20260506123055 11 0 0.0 0.0 0.00 0.03 0.00 89 1020.2
20260506121557 11 0 0.0 0.0 0.00 0.03 0.00 89 1020.1
20260506120104 11 0 0.0 0.0 0.00 0.03 0.00 88 1020.0
20260506114555 12 0 0.0 0.0 0.00 0.03 0.00 88 1019.8
20260506113055 12 0 0.0 0.0 0.00 0.03 0.00 89 1019.7
20260506111556 12 0 0.0 0.0 0.00 0.03 0.00 88 1019.8
20260506110058 12 0 0.0 1.6 0.00 0.03 0.00 88 1019.6
20260506104605 12 0 0.0 1.6 0.00 0.03 0.00 88 1019.5
20260506103059 12 0 0.0 4.8 0.00 0.03 0.00 88 1019.5
20260506101600 12 0 0.0 1.6 0.00 0.03 0.00 89 1019.5
20260506100114 12 0 0.0 1.6 0.00 0.03 0.00 89 1019.5
20260506094555 13 324 0.0 4.8 0.00 0.03 0.00 89 1019.7
20260506093103 13 321 0.0 4.8 0.00 0.03 0.00 89 1019.6
20260506091558 13 0 0.0 4.8 0.00 0.03 0.00 89 1019.5
20260506090100 13 0 0.0 4.8 0.00 0.03 0.00 89 1019.6
20260506084555 13 325 0.0 4.8 0.00 0.03 0.00 89 1019.5